Location: Olda
(45.8833°N, 9.5500°E)
Time: 15:03:33
(UTC+00:00)

ASTEX 1 - Pass Details

Date: 03 March 2021
Orbit: 720 x 743 km, 92.7° (Epoch: 11 April)

Event Time Altitude Azimuth Distance (km) Brightness Sun altitude
Rises 19:20:32 0° 5° (N) 3,149 6.8 -23.1°
Reaches altitude 10° 19:22:50 10° 6° (N) 2,221 6.0 -23.5°
Maximum altitude 19:27:45 90° 290° (WNW) 727 3.3 -24.3°
Enters shadow 19:30:12 30° 187° (S) 1,275 4.5 -24.7°
